Tracking 27107 objects as of 22-Mar-2023
HD Live streaming from Space Station
objects crossing your sky now

INTELSAT 2-F2 DEB *

Track INTELSAT 2-F2 DEB * now!


NORAD ID: 5987
Int'l Code: 1967-001S
Perigee: 477.5 km
Apogee: 28,609.7 km
Inclination: 26.6 °
Period: 501.7 minutes
Semi major axis: 20914 km
RCS: 0.3047 m2 (medium)
Launch date: January 11, 1967
Source: United States (US)
Launch site: AIR FORCE EASTERN TEST RANGE (AFETR)

Note: This is SATELLITE DEBRIS
Your satellite tracking list
Your tracking list is empty




NASA's NSSDC Master Catalog

Two Line Element Set (TLE):
1 05987U 67001S   23079.21184211  .00000613  00000-0  26581-2 0  9998
2 05987  26.6472 338.8143 6725505  81.2877 343.8543  2.87031225344574
Source of the keplerian elements: AFSPC